Dewpoint
33 31 30 29 24 24 19 13 15 19 23 36 38 52 54 54 55 55 54 56 57 57 57 57 56 54 57 59 61 62 65 69 68 68 67 66 65 67 67 68 70 71 71 71
30 29 30 20 23 23 21 19 11 11 18 38 48 52 53 52 50 56 53 54 56 56 56 57 56 55 56 59 61 65 65 69 68 69 68 66 66 66 66 69 71 70 70 71
21 20 24 21 17 18 16 15 12 12 17 34 37 51 53 51 54 60 56 52 54 56 56 57 57 56 56 60 62 65 66 69 68 68 68 68 68 68 66 70 70 70 70 71
27 24 19 17 17 17 15 15 12 12 13 19 25 37 51 53 57 57 57 52 52 55 56 57 57 57 56 60 64 65 67 70 68 69 66 65 64 64 64 68 69 70 71 71
21 22 21 18 16 17 16 17 15 13 12 13 20 23 41 53 50 55 55 53 51 53 56 57 57 57 57 61 63 66 67 70 68 69 68 67 66 64 66 64 69 70 71 71
17 20 19 18 17 17 16 15 17 16 11 7 10 18 25 47 48 51 56 57 51 51 54 57 58 58 58 60 62 66 68 69 69 69 69 68 65 68 64 64 67 70 71 71
2 11 20 23 18 17 18 16 14 14 12 10 8 6 18 32 48 48 49 56 52 53 54 56 58 59 59 59 61 64 68 69 69 70 67 70 67 67 69 68 67 65 68 68
10 7 5 16 23 19 18 18 16 13 11 10 11 9 9 15 45 51 54 58 58 53 54 55 58 59 60 60 61 63 68 69 70 70 68 69 70 68 68 69 64 67 64 66
10 3 8 10 12 19 21 18 18 15 14 12 11 10 12 10 15 47 48 50 54 56 54 55 58 59 61 61 61 63 67 69 70 69 70 68 70 69 65 67 68 67 67 67
16 11 11 11 15 16 15 18 18 17 14 15 14 14 12 12 11 22 46 54 56 59 57 61 57 58 60 61 62 63 66 69 71 70 71 70 68 70 69 66 69 67 67 65
19 16 11 11 13 14 17 19 20 20 18 15 15 15 17 21 14 16 45 50 51 55 57 63 60 58 59 61 62 63 64 69 71 71 70 70 70 68 68 68 67 69 69 72
19 18 14 10 12 11 8 18 18 20 21 22 17 14 18 19 19 15 18 48 50 55 55 56 57 59 58 60 61 63 64 66 70 71 71 71 71 70 69 66 70 71 72 71
22 19 15 14 14 13 10 8 11 13 15 21 21 17 18 20 21 20 16 21 43 56 57 61 63 61 57 59 61 62 63 64 68 71 71 70 70 71 70 67 68 71 70 72
23 19 19 18 16 18 15 11 10 10 12 12 13 20 24 21 23 28 26 25 29 44 54 55 58 57 58 59 60 61 62 63 65 69 69 70 70 70 70 70 68 70 72 72
20 17 17 17 17 16 15 15 14 13 12 17 17 16 22 29 34 33 43 42 30 31 39 44 52 57 66 61 62 62 62 62 63 65 68 69 70 70 71 69 70 70 70 72
27 19 16 15 16 19 20 18 14 14 15 14 15 18 25 31 39 39 44 50 47 46 46 50 51 55 59 62 63 64 63 63 63 64 66 68 69 70 70 70 70 71 71 72
25 26 26 23 18 15 17 17 16 14 15 17 19 20 27 29 37 38 43 49 53 48 50 52 52 53 60 62 63 65 65 64 64 65 66 67 69 69 70 71 70 71 71 71
21 20 28 24 22 19 18 20 16 14 14 13 15 19 22 25 32 36 39 46 52 54 55 56 55 56 56 65 65 66 66 66 66 65 67 67 68 69 70 70 71 70 71 71
21 19 26 24 17 19 18 19 28 32 27 15 33 33 24 16 21 37 51 55 55 53 54 56 58 59 62 62 60 60 66 66 66 67 66 68 67 69 70 70 71 71 71 72
25 20 26 27 16 16 16 33 32 30 25 40 42 41 41 42 20 44 49 50 51 53 54 55 56 57 63 64 63 61 60 67 66 66 68 68 68 69 70 71 71 71 71 71
27 26 25 26 23 16 27 34 35 26 29 40 41 42 43 43 48 49 47 49 49 50 53 55 56 58 63 65 68 64 63 62 68 68 67 69 71 69 71 72 72 72 72 72
27 26 27 27 28 17 37 32 31 39 40 38 39 41 42 43 45 44 46 47 47 47 51 54 55 57 60 63 64 67 66 65 66 70 69 70 70 72 71 73 73 73 73 73
30 35 32 30 26 37 38 39 40 40 40 41 43 41 43 43 44 46 45 46 46 48 51 53 54 56 57 59 61 63 68 70 67 69 70 70 72 72 71 73 73 74 74 73
33 36 33 32 28 35 36 36 40 41 41 43 46 43 45 45 46 47 46 46 47 49 50 50 53 54 55 57 58 60 64 67 71 68 72 71 73 72 72 72 73 73 73 73
34 34 32 32 34 37 38 39 39 39 41 43 44 45 45 46 45 46 47 48 49 50 51 51 52 54 55 55 56 57 60 64 70 71 71 71 71 72 73 72 73 73 73 73
37 34 31 30 35 36 36 40 39 39 41 43 44 44 44 45 45 46 47 49 51 51 51 52 53 54 54 55 55 57 59 62 67 72 71 71 70 71 72 72 70 64 68 67
Wind_Speed
22 18 23 24 26 26 25 25 23 20 24 15 17 25 21 12 17 11 27 32 32 30 27 27 27 26 26 25 22 21 16 21 16 13 11 10 11 10 16 13 4 10 11 13
17 26 23 22 23 24 25 25 24 20 23 19 16 20 22 31 24 9 27 30 34 34 30 28 26 28 26 26 25 21 18 21 18 14 12 10 11 12 11 15 16 11 7 10
25 16 27 25 23 23 23 24 22 20 19 21 20 20 18 16 6 14 30 29 32 37 35 31 29 29 26 28 27 23 21 22 18 14 13 11 8 3 15 16 11 8 10 8
25 25 22 24 26 23 24 19 22 22 22 20 22 18 21 16 22 32 29 32 32 33 33 31 30 29 30 29 27 26 22 21 20 16 16 13 11 11 10 12 12 14 12 11
19 24 24 25 20 26 23 21 18 19 25 25 29 21 16 33 25 28 30 29 35 32 36 36 35 31 30 31 30 28 26 22 21 19 14 15 15 13 9 13 16 16 11 10
17 21 18 23 24 19 19 21 20 22 22 28 28 28 24 29 30 27 35 40 38 36 34 36 35 31 29 28 30 28 29 26 23 24 20 18 20 14 11 12 17 16 14 11
18 21 21 14 18 24 20 16 22 24 24 31 26 28 22 18 34 33 30 39 35 37 34 33 35 34 32 33 34 32 33 30 28 27 24 18 21 19 13 10 15 16 15 16
18 15 26 22 20 18 23 25 24 22 24 29 28 30 28 31 32 40 41 30 29 37 35 32 36 36 37 35 35 34 35 33 31 28 28 22 20 18 16 12 13 9 14 15
11 17 17 16 25 21 25 29 28 30 30 25 27 22 30 26 29 39 29 22 25 24 22 35 34 33 34 33 36 36 35 34 32 31 27 26 21 20 18 16 12 12 12 4
10 18 18 17 9 13 20 23 25 26 31 34 26 28 23 27 24 24 25 31 32 31 25 24 33 33 31 32 31 32 33 35 33 32 28 27 27 24 17 20 14 15 13 16
10 11 20 21 15 15 18 22 25 24 26 31 28 27 21 17 30 26 27 28 22 19 30 31 39 30 34 32 31 33 32 33 33 32 30 28 28 27 24 19 20 19 16 10
11 10 17 22 22 25 18 26 24 25 25 24 26 30 31 14 10 28 25 34 37 43 35 23 42 39 37 36 34 34 33 32 34 32 30 30 27 28 28 26 22 20 18 17
8 10 19 21 20 21 25 23 25 27 29 30 27 24 38 25 15 13 22 17 18 35 37 44 47 43 39 38 35 34 34 35 31 30 30 29 30 29 29 29 24 24 22 18
4 15 21 24 20 20 14 17 25 27 28 26 32 31 29 23 7 16 12 9 13 20 44 40 47 11 32 35 35 33 33 32 31 32 31 31 32 31 30 28 29 24 22 23
9 19 22 26 29 23 24 23 21 23 33 31 27 31 32 12 32 16 28 26 11 16 6 4 13 32 40 36 35 33 30 32 31 31 33 34 32 30 29 28 29 28 27 24
16 21 20 25 25 22 26 28 24 25 27 29 36 33 27 20 20 32 20 29 22 11 14 18 17 6 18 23 32 33 32 31 30 30 32 28 29 29 29 29 27 28 27 26
14 15 13 25 24 20 27 25 26 24 27 26 29 25 23 20 13 20 20 22 32 19 20 22 21 18 7 8 10 26 29 27 30 28 28 30 29 31 31 28 29 27 29 27
18 22 9 15 16 22 22 24 26 29 32 28 28 31 30 26 15 13 18 9 18 30 24 21 20 23 14 21 22 26 26 26 25 29 26 29 29 32 30 30 29 29 26 28
23 22 13 13 14 20 27 18 5 17 15 20 16 24 33 29 27 7 23 17 9 22 22 22 22 22 25 22 17 15 25 31 28 24 30 29 31 29 31 31 31 28 28 27
23 24 16 12 15 13 21 6 17 17 16 19 25 24 23 32 27 11 15 18 20 20 20 21 22 22 24 23 22 18 17 24 31 32 26 25 28 27 30 31 30 28 27 28
9 19 20 19 18 19 1 2 8 11 5 20 19 23 24 19 11 6 8 9 11 19 21 21 19 20 20 25 31 24 21 19 26 26 27 25 25 30 27 27 26 26 27 25
10 7 14 10 12 18 14 8 4 10 19 23 23 19 22 17 17 14 14 13 14 14 17 18 18 19 21 23 25 29 24 22 16 25 27 24 28 24 25 27 26 27 26 26
4 7 7 7 5 11 10 9 14 15 17 21 26 23 21 17 12 12 10 11 11 12 14 15 16 17 19 22 23 25 24 20 17 15 27 26 23 26 24 27 26 25 26 25
11 12 5 12 6 23 18 15 11 14 17 19 24 21 20 13 11 10 9 14 14 13 13 15 15 16 19 21 22 22 23 25 17 19 23 25 23 24 25 22 25 25 25 26
3 12 10 8 11 22 15 15 17 16 15 19 18 14 10 11 12 9 7 9 12 12 13 13 15 15 18 21 22 24 24 24 21 20 20 22 21 24 24 25 24 25 25 25
3 4 6 5 11 10 10 15 17 19 16 19 13 15 12 12 12 11 10 10 10 10 12 12 14 16 17 19 22 24 24 23 19 7 17 18 19 20 22 24 16 5 12 15
Wind_Direction
208 210 217 225 229 241 264 278 237 239 233 227 222 137 142 256 254 280 162 166 176 191 195 178 171 168 158 154 159 167 179 157 162 164 192 206 187 184 191 128 210 176 160 131
202 228 228 229 236 233 251 262 273 270 251 186 158 163 165 196 237 249 175 180 177 179 198 175 178 172 171 162 164 170 182 159 164 170 207 215 185 181 190 165 193 159 180 151
226 227 218 235 235 242 236 248 260 270 277 202 215 162 207 217 326 289 249 184 188 176 192 177 186 177 178 166 168 175 177 164 168 188 198 224 227 233 174 148 153 170 175 183
232 241 248 217 238 237 245 244 253 274 276 266 236 226 175 209 176 248 285 178 194 183 184 178 185 185 182 171 170 173 176 169 178 195 188 204 215 204 199 169 176 168 182 185
240 237 236 246 229 237 251 255 257 242 264 274 264 255 187 173 187 189 280 215 188 194 184 181 186 189 184 171 172 173 177 179 181 197 199 192 215 223 190 171 186 161 182 189
277 281 236 245 250 239 248 251 263 268 256 247 250 259 252 169 180 178 217 245 182 187 191 182 182 184 186 175 175 174 179 184 183 192 209 194 207 229 203 204 153 160 176 191
239 251 263 269 245 241 222 238 237 243 241 245 237 243 246 225 171 168 198 240 186 177 188 184 178 181 189 183 178 178 179 186 187 186 204 208 198 221 241 216 179 183 182 186
286 233 219 227 229 241 224 225 229 230 236 244 238 248 240 252 191 183 189 203 295 176 181 187 183 186 187 189 182 181 180 184 186 188 197 203 201 211 220 238 207 199 204 197
313 257 293 210 223 223 247 223 236 257 264 254 257 236 232 245 250 196 173 153 205 268 189 181 186 190 188 190 188 184 182 185 186 193 191 198 203 206 208 218 216 208 243 260
314 312 293 294 238 254 237 257 236 233 250 260 263 256 257 205 230 239 171 171 184 223 301 289 181 189 192 193 189 187 184 186 189 190 193 194 201 201 207 212 213 214 220 237
313 284 286 300 263 239 241 256 262 272 237 248 258 257 265 250 203 219 163 162 153 168 225 255 275 195 190 190 191 189 189 185 189 191 195 196 197 203 207 209 212 200 225 230
313 314 280 267 269 278 249 267 263 247 247 262 251 256 260 312 264 202 216 169 182 172 162 183 246 244 181 188 191 190 190 192 191 192 193 197 198 199 202 211 203 206 200 211
349 281 280 262 264 273 267 242 253 264 259 256 260 241 261 286 310 233 207 221 181 160 175 190 222 233 181 183 186 190 190 195 190 192 195 197 201 199 204 205 214 200 207 210
311 266 268 277 285 332 300 264 250 268 257 254 252 260 276 256 311 2 330 255 249 181 185 200 206 166 176 182 184 187 191 191 193 190 196 200 201 203 201 200 204 209 200 203
251 266 261 269 280 295 293 277 280 280 256 257 250 244 258 281 360 345 8 343 272 233 265 281 201 146 231 183 183 183 189 190 190 194 195 201 202 203 201 203 200 205 207 209
273 266 265 274 271 274 270 276 260 265 276 268 263 263 278 316 63 300 353 359 343 19 13 18 6 325 163 175 178 182 186 187 190 195 197 198 199 199 206 204 205 200 207 206
258 273 286 265 271 269 272 254 261 258 263 267 269 263 271 292 25 346 345 8 349 359 5 3 352 352 127 167 211 188 192 185 187 195 194 194 194 201 203 205 203 206 203 207
260 265 215 270 279 270 262 266 271 265 255 261 268 275 283 287 292 306 312 5 354 339 348 346 335 332 351 144 243 212 188 193 192 194 195 193 195 196 200 204 206 207 206 207
253 246 236 255 241 257 274 281 339 342 290 250 328 309 285 268 271 9 15 32 33 317 340 335 334 335 333 326 325 329 186 190 198 197 200 195 197 194 195 202 206 205 207 209
254 251 197 231 237 254 250 46 318 322 265 20 1 345 348 359 247 97 29 7 358 337 331 328 336 329 323 322 312 299 291 196 195 204 205 201 195 196 198 202 204 206 207 211
303 244 249 242 249 249 213 43 338 251 308 345 345 339 347 3 31 1 5 11 3 337 328 329 333 328 328 335 339 283 276 273 204 201 205 199 196 199 197 199 201 204 209 211
300 257 230 226 245 242 33 317 300 350 318 328 324 317 321 331 350 352 356 8 353 332 327 335 335 333 332 344 336 329 253 257 270 197 200 205 201 196 198 195 201 205 206 211
344 11 317 305 272 47 48 0 339 341 319 316 318 305 304 311 320 343 336 352 333 329 335 343 337 344 347 348 341 332 343 286 245 260 193 202 194 200 201 197 201 205 207 211
338 17 287 331 315 340 333 316 336 337 324 314 312 296 300 309 324 333 336 340 341 348 336 351 348 355 356 349 340 332 332 327 275 233 192 194 192 196 202 207 201 206 206 209
313 320 310 275 327 337 24 358 346 329 327 328 323 311 321 316 306 319 332 333 329 335 335 351 353 357 1 350 341 337 339 339 324 204 185 189 196 193 200 208 205 207 212 210
311 317 331 319 311 314 311 337 344 337 333 320 312 315 310 301 295 305 306 307 310 329 341 340 356 0 358 349 341 340 344 347 343 267 185 191 199 198 201 203 206 83 214 211